Weather History for Hagerstown, MD

Change the Weather History Date:

Wednesday, October 29, 2014

  Actual Average Record
Temperature  
Mean Temperature 61 °F -  
Max Temperature 69 °F 58 °F 71 °F (1999)
Min Temperature 53 °F 40 °F 28 °F (1997)
Degree Days  
Heating Degree Days 4    
Month to date heating degree days 191  
Growing Degree Days 8 (Base 50)    
Moisture  
Dew Point 49 °F    
Average Humidity 68    
Maximum Humidity 89    
Minimum Humidity 47    
Precipitation  
Precipitation 0.13 in - - ()
Month to date precipitation 2.38  
Year to date precipitation 31.53  
Sea Level Pressure  
Sea Level Pressure 29.97 in    
Wind  
Wind Speed 8 mph (WSW)    
Max Wind Speed 16 mph    
Max Gust Speed 19 mph    
Visibility 10 miles    
Events Rain    
Averages and records for this station are not official NWS values.
T = Trace of Precipitation, MM = Missing Value Source: NWS Daily Summary

Daily Weather History Graph

Daily Weather History Graph

Search for Another Location

Airport:

Trip Planner

Search our weather history database for the weather conditions in past years. The results will help you decide how hot, cold, wet, or windy it might be!

Date:

Astronomy

Oct. 29, 2014 Rise Set
Actual Time 7:36 AM EDT 6:12 PM EDT
Civil Twilight 7:08 AM EDT 6:40 PM EDT
Nautical Twilight 6:36 AM EDT 7:12 PM EDT
Astronomical Twilight 6:05 AM EDT 7:43 PM EDT
Moon 12:53 PM EDT (10/29) 11:20 PM EDT (10/29)
Length of Visible Light 11h 32m
Length of Day
10h 36m
Waxing Crescent, 34% of the Moon is Illuminated
Oct 29
Waxing Crescent
Oct 30
First Quarter
Nov 6
Full
Nov 14
Last Quarter
Nov 22
New

Hourly Weather History & Observations

Time (EDT) Temp. Dew Point Humidity Pressure Visibility Wind Dir Wind Speed Gust Speed Precip Events Conditions
12:53 AM 68.0 °F 48.9 °F 50% 29.91 in 10.0 mi SSW 5.8 mph - N/A   Scattered Clouds
1:53 AM 69.1 °F 48.9 °F 49% 29.92 in 10.0 mi SW 9.2 mph - N/A   Overcast
2:53 AM 69.1 °F 52.0 °F 54% 29.93 in 10.0 mi West 6.9 mph - N/A   Overcast
3:53 AM 69.1 °F 52.0 °F 54% 29.92 in 10.0 mi WSW 4.6 mph - N/A   Overcast
4:53 AM 64.0 °F 50.0 °F 60% 29.94 in 10.0 mi NW 15.0 mph - N/A   Overcast
5:53 AM 63.0 °F 48.0 °F 58% 29.94 in 10.0 mi WNW 10.4 mph - N/A   Overcast
6:53 AM 61.0 °F 48.9 °F 64% 29.96 in 10.0 mi NW 15.0 mph - N/A   Overcast
7:53 AM 57.9 °F 48.0 °F 70% 29.99 in 10.0 mi WNW 8.1 mph - 0.00 in   Overcast
8:53 AM 57.0 °F 48.0 °F 72% 30.00 in 10.0 mi WNW 6.9 mph - N/A   Overcast
9:53 AM 54.0 °F 48.9 °F 83% 30.01 in 7.0 mi WSW 6.9 mph - 0.01 in Rain Light Rain
10:53 AM 54.0 °F 50.0 °F 86% 30.01 in 10.0 mi West 4.6 mph - 0.05 in Rain Light Rain
11:53 AM 55.0 °F 50.0 °F 83% 30.02 in 10.0 mi WSW 4.6 mph - 0.03 in Rain Light Rain
12:53 PM 55.9 °F 51.1 °F 84% 29.99 in 10.0 mi WSW 4.6 mph - 0.01 in Rain Light Rain
1:53 PM 55.0 °F 51.1 °F 86% 29.98 in 6.0 mi Variable 4.6 mph - 0.03 in Rain Light Rain
2:53 PM 55.9 °F 50.0 °F 80% 29.95 in 10.0 mi WSW 4.6 mph - 0.00 in   Mostly Cloudy
3:53 PM 57.0 °F 48.9 °F 74% 29.95 in 10.0 mi SSW 6.9 mph - N/A   Scattered Clouds
4:53 PM 57.9 °F 48.0 °F 70% 29.95 in 10.0 mi SW 5.8 mph - N/A   Clear
5:53 PM 57.0 °F 48.9 °F 74% 29.96 in 10.0 mi SSW 5.8 mph - N/A   Clear
6:53 PM 55.9 °F 48.9 °F 77% 29.98 in 10.0 mi SW 3.5 mph - N/A   Clear
7:53 PM 52.0 °F 48.0 °F 86% 30.01 in 10.0 mi Calm Calm - N/A   Clear
8:53 PM 51.1 °F 48.0 °F 89% 30.01 in 10.0 mi South 3.5 mph - N/A   Clear
9:53 PM 48.9 °F 44.1 °F 83% 30.02 in 10.0 mi Calm Calm - N/A   Partly Cloudy
10:53 PM 46.9 °F 45.0 °F 93% 30.03 in 5.0 mi Calm Calm - N/A   Clear
11:53 PM 46.9 °F 44.1 °F 90% 30.02 in 9.0 mi Calm Calm - N/A   Clear